Content
SEND FEEDBACK

Daily
Averages
Monthly
Summary
United States of America

SOUTH LAKE TAHOE, CALIFORNIA


Home > North America > United States > California
Elevation: 6263 feet     Latitude: 38 53N     Longitude: 119 59W

WEATHER
 
SELECT A DAY
Number of Records: 174,627;   Date Range: 1/1/95 - 9/18/14
 
SHARE

PRINT THIS DATA

[ ← Previous Day ]
WEATHER ALMANAC - SEPTEMBER 15, 2013
[ Next Day → ]
[ °C ]   °F
Weather ElementAverageHighLow
Temperature62.8 °F78.1 °F (2:53 pm)44.1 °F (6:53 am)
Dewpoint35.7 °F43 °F (8:53 am)28.9 °F (10:53 am)
Humidity42.1 %76 % (5:53 am)18 % (10:53 am)
Barometer29.88 in29.92 in (7:53 am)29.86 in (1:53 pm)
Wind Speed7 mph18.4 mph (10:53 am)
Wind Gust33.4 mph (11:53 am)
Weather ElementAverage
Visibility10 mi
Wind DirectionESE (124.8 °)

Weather ElementTotal
Precipitation---
Heating Degree Days3.9 (Base 65)
Growing Degree Days11.1 (Base 50)
Averaged from 23 records on September 15, 2013
WEATHER CONDITIONS BREAKOUT
WIND DIRECTION BREAKOUT
WEATHER BY HOUR - SEPTEMBER 15, 2013
[ °C ]   °F
Local TimeTemperatureDewpointHumidityBarometerVisibilityWind DirectionWind SpeedGust SpeedPrecipitationEventsConditions
1:53 AM50.0 °F41.0 °F71 %29.87 in10.0 miCalmPartly Cloudy
2:53 AM48.9 °F39.9 °F71 %29.87 in10.0 miCalmMostly Cloudy
3:53 AM48.0 °F39.9 °F74 %29.88 in10.0 miCalmMostly Cloudy
4:53 AM46.9 °F39.0 °F74 %29.89 in10.0 miSSW (210°)3.5 mphClear
5:53 AM45.0 °F37.9 °F76 %29.89 in10.0 miSSW (200°)3.5 mphClear
6:53 AM44.1 °F37.0 °F76 %29.91 in10.0 miSSW (200°)3.5 mphClear
7:53 AM48.0 °F39.0 °F71 %29.92 in10.0 miCalmClear
8:53 AM60.1 °F43.0 °F53 %29.88 in10.0 miCalmClear
9:53 AM72.0 °F35.1 °F26 %29.87 in10.0 miSSW (200°)13.8 mph21.9 mphClear
10:53 AM75.0 °F28.9 °F18 %29.87 in10.0 miSouth (190°)18.4 mph28.8 mphClear
11:53 AM75.9 °F30.0 °F19 %29.87 in10.0 miSouth (190°)17.3 mph33.4 mphClear
12:53 PM77.0 °F30.9 °F19 %29.88 in10.0 miSW (220°)10.4 mph27.6 mphClear
1:53 PM77.0 °F35.1 °F22 %29.86 in10.0 miWSW (240°)9.2 mph31.1 mphClear
2:53 PM78.1 °F37.0 °F23 %29.86 in10.0 miSouth (190°)18.4 mph25.3 mphClear
3:53 PM75.9 °F37.9 °F25 %29.86 in10.0 miSouth (190°)11.5 mph25.3 mphClear
4:53 PM73.9 °F37.0 °F26 %29.87 in10.0 miSSW (200°)10.4 mph17.3 mphClear
5:53 PM71.1 °F35.1 °F27 %29.89 in10.0 miSSW (210°)9.2 mph19.6 mphClear
6:53 PM69.1 °F32.0 °F25 %29.91 in10.0 miVariable6.9 mph19.6 mphClear
7:53 PM66.9 °F33.1 °F28 %29.91 in10.0 miSW (220°)6.9 mphClear
8:53 PM62.1 °F35.1 °F37 %29.91 in10.0 miSSW (210°)4.6 mphClear
9:53 PM60.1 °F35.1 °F39 %29.89 in10.0 miVariable3.5 mphClear
10:53 PM61.0 °F30.9 °F32 %29.87 in10.0 miVariable4.6 mphClear
11:53 PM57.9 °F30.9 °F36 %29.88 in10.0 miVariable4.6 mphClear
Hourly data recorded from KTVL, located miles away from South Lake Tahoe, California







STORIES FROM OUR PARTNERS